Hourly Data Report for April 06, 2019

OTTAWA INTL A
ONTARIO
Current Station Operator: NAVCAN

45°19'00.000" N
75°40'00.000" W
114.90 m
6106001
71628
YOW

Download Data

Hourly Data (April 2019)
Hourly Data Report for April 6, 2019
TIME
LST
Temp Definition
°C
Dew Point Definition
°C
Rel Hum Definition
%
Precip. Amount Definition
mm

Wind Dir Definition
10's deg

Wind Spd Definition
km/h
Visibility Definition
km
Stn Press Definition
kPa
Hmdx Definition


Wind Chill Definition


Weather Definition


00:00 0.4 0.1 98   26 4 1.6 100.52     Drizzle, Fog
01:00 0.2 -0.1 98   36 3 0.8 100.49     Drizzle, Fog
02:00 0.2 -0.1 98   24 3 0.8 100.47     Fog
03:00 0.4 0.1 98   23 5 0.8 100.45     Fog
04:00 0.7 0.5 98   23 7 0.8 100.46     Fog
05:00 0.7 0.4 98   24 7 1.6 100.51     Fog
06:00 1.0 0.7 98   23 9 3.2 100.56     Fog
07:00 1.4 1.2 98   24 10 4.8 100.62     Fog
08:00 1.6 1.4 98   23 9 4.8 100.68     Fog
09:00 2.2 1.8 97   24 9 4.8 100.68     Fog
10:00 3.0 1.6 90   29 15 16.1 100.74     Cloudy
11:00 3.5 1.0 84   29 19 16.1 100.77     LegendNANA
12:00 5.0 1.4 78   27 15 24.1 100.79     LegendNANA
13:00 6.8 1.3 68   29 12 24.1 100.77     Mostly Cloudy
14:00 7.9 1.3 63   26 17 24.1 100.76     LegendNANA
15:00 8.8 1.9 62   25 14 24.1 100.71     LegendNANA
16:00 9.4 1.0 55   27 17 24.1 100.72     Mainly Clear
17:00 10.3 1.9 56   30 9 24.1 100.73     LegendNANA
18:00 8.2 0.7 59   28 3 24.1 100.73     LegendNANA
19:00 7.5 0.9 63   13 3 24.1 100.73     Mainly Clear
20:00 6.7 0.7 65   19 10 24.1 100.81     LegendNANA
21:00 5.0 0.5 73   34 14 24.1 100.87     LegendNANA
22:00 5.2 0.0 69   35 11 24.1 100.88     Mostly Cloudy
23:00 4.2 -0.3 73   24 5 24.1 100.86     LegendNANA

Notes on Data Quality.

Legend

  • E = Estimated
  • M = Missing
  • NA = Not Available*
  • [empty] = Indicates an unobserved value
Date modified: